AirNav   Pilot Hours Calculator
 
 1724 users online  

KNFE Fentress Naval Auxiliary Field
Fentress, Virginia, USA

GOING TO FENTRESS?


FAA INFORMATION EFFECTIVE 22 APRIL 2021

Location

FAA Identifier: NFE
Lat/Long: 36-41-31.3310N 076-08-04.4305W
36-41.522183N 076-08.073842W
36.6920364,-76.1345640
(estimated)
Elevation: 16 ft. / 5 m (estimated)
Variation: 09W (1985)
Time zone: UTC -4 (UTC -5 during Standard Time)
Zip code: 23322

Airport Operations

Airport use: Private use. Permission required prior to landing
Activation date: 08/1943
Control tower: no
ARTCC: WASHINGTON CENTER
FSS: LEESBURG FLIGHT SERVICE STATION
Attendance: UNATNDD
Segmented circle: no
Lights: RY LGTS OPERATED BY CRASH CREW DURING SCHEDULED OPNS.

Airport Communications

OCEANA APPROACH: 123.9
OCEANA DEPARTURE: 123.9
WX AWOS-3 at CPK (9 nm W): 123.675 (757-204-4290)
WX ASOS at NTU (9 nm NE): PHONE DSN 433-3619 or 757-433-3619
WX ASOS at ORF (13 nm N): PHONE 757-460-9348
WX AWOS-3PT at PVG (16 nm W): 118.375 (757-465-2175)
WX AWOS-3 at ONX (18 nm S): 119.775 (252-453-8939)

Nearby radio navigation aids

VOR radial/distance  VOR name  Freq  Var
ORFr172/12.4NORFOLK VORTAC116.9007W
ECGr011/26.1ELIZABETH CITY VOR/DME112.5007W
CCVr199/39.9CAPE CHARLES VORTAC112.2010W

 
NDB name  Hdg/Dist  Freq  Var  ID
INGLE157/10.532909WOR --- .-.
WOODVILLE027/26.925410WLLW .-.. .-.. .--

Airport Services

Runway Information

Runway 5/23

Dimensions: 8004 x 175 ft. / 2440 x 53 m
Surface: asphalt
Weight bearing capacity: 
PCN 40 /R/C/W/T
Runway edge lights: low intensity
RUNWAY 5  RUNWAY 23
Latitude: 36-41.014033N36-42.030333N
Longitude: 076-08.595917W076-07.551767W
Elevation: 14.5 ft.14.2 ft.
Traffic pattern: leftleft
Runway heading: 049 magnetic, 040 true228 magnetic, 219 true
Touchdown point: yes, no lightsyes, no lights

Airport Ownership and Management from official FAA records

Ownership: U.S. Navy
Owner: US NAVY
OCEANOGRAPHIC OFC - CODE 3142
WASHINGTON, DC 20373

Additional Remarks

FOR CD CTC WASHINGTON ARTCC AT 703-771-3587.

Instrument Procedures

There are no published instrument procedures at KNFE.

Some nearby airports with instrument procedures:

KCPK - Chesapeake Regional Airport (9 nm W)
KNTU - Oceana Naval Air Station (Apollo Soucek Field) (9 nm NE)
KORF - Norfolk International Airport (13 nm N)
KPVG - Hampton Roads Executive Airport (16 nm W)
KNGU - Norfolk Naval Station (Chambers Field) (16 nm NW)
KONX - Currituck County Regional Airport (18 nm S)
 
Loc | Ops | Rwys | IFR | FBO | Links
Com | Nav | Svcs | Stats | Notes
Area around KNFE (Fentress Naval Auxiliary Field)
 
Road maps at: MapQuest Bing Google
 
Aerial photo
WARNING: Photo may not be current or correct
Aerial photo of KNFE (Fentress Naval Auxiliary Field)
Do you have a better or more recent aerial photo of Fentress Naval Auxiliary Field that you would like to share? If so, please send us your photo.

 
Sectional chart

 
Airport distance calculator
Flying to Fentress Naval Auxiliary Field? Find the distance to fly.

From to KNFE

Sunrise and sunset
Times for 18-May-2021
 Local
(UTC-4)
 Zulu
(UTC)
Morning civil twilight05:2709:27
Sunrise05:5609:56
Sunset20:0600:06
Evening civil twilight20:3500:35

Current date and time
Zulu (UTC)  18-May-2021 18:55:01
Local (UTC-4)  18-May-2021 14:55:01
 
METAR
KNFE 181756Z AUTO 10SM CLR 23/07 A3038 RMK AO2 SLP289 T02330067 10239 20167 58006
KCPK 
9nm W 
181835Z AUTO 02003KT 7SM CLR A3037 RMK AO2
KNTU 
9nm NE 
181756Z 07008KT 10SM CLR 23/09 A3038 RMK AO2 SLP289 T02280094 10239 20189 58006
KORF 
13nm N 
181751Z 04009KT 10SM CLR 23/09 A3038 RMK AO2 SLP286 T02330094 10233 20183 58007
KNGU 
15nm NW 
181759Z 05007KT 10SM CLR 22/08 A3040 RMK AO2 SLP293 T02220078 10228 20178 58007 $
KPVG 
16nm W 
181756Z AUTO 03007KT 10SM CLR 24/07 A3038 RMK AO2 SLP289 6//// T02390072 10244 20144 58008 PNO $
KONX 
18nm S 
181835Z AUTO 04007KT 010V070 10SM CLR 22/12 A3037 RMK AO2 T02150118
TAF
KNTU 
9nm NE 
1815/1915 06008KT 9999 FEW050 SCT250 QNH3033INS FM182200 14009KT 9999 FEW050 SCT250 QNH3030INS FM190200 VRB06KT 9999 SKC QNH3030INS T25/1819Z T12/1909Z FN20008
KORF 
13nm N 
181720Z 1818/1918 05009KT P6SM SKC FM182100 09009KT P6SM SKC FM190000 14006KT P6SM SKC FM190400 17004KT P6SM SKC FM191500 29004KT P6SM SKC
KNGU 
15nm NW 
1815/1915 08008KT 9999 SCT250 QNH3030INS WND 030V110 FM182300 13007KT 9999 FEW050 SCT250 QNH3032INS FM190700 VRB05KT 9999 FEW250 QNH3034INS T25/1820Z T12/1910Z FN20002
NOTAMs
Click for the latest NOTAMs
NOTAMs are issued by the DoD/FAA and will open in a separate window not controlled by AirNav.

 

 
 

Would you like to see your business listed on this page?

 If your business provides an interesting product or service to pilots, flight crews, aircraft, or users of the Fentress Naval Auxiliary Field, you should consider listing it here.  To start the listing process, click on the button below
 
Add a business
 

Other Pages about Fentress Naval Auxiliary Field

Update a link
 
Copyright © AirNav, LLC. All rights reserved. Privacy Policy  Contact